Showing default

NAVSTAR 73 (USA 260), 40534

Orbit data source: Space-Track

NAVSTAR 73 (USA 260), 40534 is a payload satellite owned by USAF SMC (US) in MEO that was launched on Wed, 25 Mar 2015 UTC via a DELTA 4M+(4,2) launch vehicle from the Air Force Eastern Test Range (AFETR). Payload-class satellites include a variety of spacecraft equipped with specific instruments for various scientific and technological missions. These include communications satellites like Starlink; space stations such as the ISS; scientific satellites like the Hubble; Earth observation satellites from companies like Planet Labs, Umbra, and HawkEye 360; GPS; miniature CubeSats for education and research; and military/defense satellites.

Loading next visibility...
Identifier
40534, 2015-013A
Orbit
MEO
Country
Flag of USUS
Related business
Manufacturer
Boeing/ES
Mission
Operational Defense Navigation
Bus & Motor
GPS IIF, AOCS
Mass
1,630 kg wet, ~1,500 kg dry
Launch date (UTC)
2015-03-25 (11 years ago)
Launch vehicle
DELTA 4M+(4,2)
Launch site
Air Force Eastern Test Range (AFETR)
Object type
Payload
Rocket body
Debris
Shape & HBR
Box + 2 Pan, 9.0 m
Radar Cross Section
13.960 m², Large (>1 m²)

Expand to show TLE details & history
Last TLE update: 1 day ago

TLE from 1 day ago
0 NAVSTAR 73 (USA 260)
1 40534U 15013A   26144.62808292  .00000007  00000-0  00000-0 0  9997
2 40534  53.1699 205.1520 0109123  40.0333 320.8330  2.00552773 81352
Epoch: 2026-05-24T15:04Z
TLE epoch observation values (Epoch: 2026-05-24T15:04:26.364Z)
Latitude
0.00004°
Longitude
96.82118°
Altitude
19,959.868 km
Speed
3.907 km/s
True Right ascension
13h 40m 38s
True Declination
0° 00' 00"
Sunlit
Object was in daylight at epoch
Visualization orbit readout
Latitude
Unknown
Longitude
Unknown
Altitude
Unknown
Speed
Unknown
Apparent Right ascension
Unknown
Apparent Declination
Unknown
Sunlit
N/A
Visualization observer readout
Local Sidereal Time
12:07:40
Azimuth
Unknown
Elevation
Unknown
Doppler factor
Unknown
Orbital elements
Apogee altitude
20,473.094 km
Perigee altitude
19,893.402 km
Semi-major axis
26,561.385 km
Eccentricity
0.01091
Inclination
53.1699°
RAAN
205.152°
Arg. of periapsis
40.0333°
True anomaly
320.03482°
Mean anomaly
320.833°
Eccentric anomaly
320.43476°
Mean motion
0.50138 °/min
Orbital period
718.02 mins
BSTAR
0
Loading maneuver chart data...
Computing Atmospheric mass density...
Loading historical data...
Loading historical data...
Loading historical data...
Loading historical data...
Loading historical data...
Loading historical data...
Loading historical data...

Documentation

Showing up to 5 results
|